CZ-6A DEB, 55237

Orbit data source: Space-Track

CZ-6A DEB, 55237 is space debris in SSO originally from a launch on Fri, 11 Nov 2022 UTC launched from the Taiyaun Space Center, China (TSC). Debris objects in space refer to the collection of defunct objects orbiting the Earth. Examples of debris include non-operational satellites, rocket bodies, and fragments generated from explosions, collisions, or faulty payload assembly.

Loading next visibility...
Identifier
55237, 2022-151XE
Orbit
SSO
Country
Flag of CNCN / PRC
Related business
Manufacturer
SAST
Mission
Spacecraft
Bus & Motor
Unknown
Mass
Unknown
Launch date (UTC)
2022-11-11 (4 years ago)
Launch vehicle
Unknown
Launch site
Taiyaun Space Center, China (TSC)
Object type
Payload
Rocket body
Debris
Shape & HBR
Unknown shape, 0.1 m
Radar Cross Section
Medium (>0.1 m² and <1 m²)

Expand to show TLE details & history
Last TLE update: 1 day ago

TLE from 1 day ago
0 CZ-6A DEB
1 55237U 22151XE  26263.23908725  .00001919  00000-0  38638-3 0  9999
2 55237  98.7620   0.7416 0102475 328.7295  30.7833 14.59608476203143
Epoch: 2026-09-20T05:44Z
TLE epoch observation values (Epoch: 2026-09-20T05:44:17.138Z)
Latitude
-0.00001°
Longitude
-84.46593°
Altitude
635.325 km
Speed
7.574 km/s
True Right ascension
00h 02m 57s
True Declination
0° 00' 00"
Sunlit
Object was in full shadow at epoch
Visualization orbit readout
Latitude
Unknown
Longitude
Unknown
Altitude
Unknown
Speed
Unknown
Apparent Right ascension
Unknown
Apparent Declination
Unknown
Sunlit
N/A
Visualization observer readout
Local Sidereal Time
04:57:33
Azimuth
Unknown
Elevation
Unknown
Doppler factor
Unknown
Orbital elements
Apogee altitude
763.993 km
Perigee altitude
619.1 km
Semi-major axis
7,069.683 km
Eccentricity
0.01025
Inclination
98.762°
RAAN
0.7416°
Arg. of periapsis
328.7295°
True anomaly
31.39096°
Mean anomaly
30.7833°
Eccentric anomaly
31.08646°
Mean motion
3.65126 °/min
Orbital period
98.6 mins
BSTAR
0.00038638
Loading maneuver chart data...
Computing Atmospheric mass density...
Loading historical data...
Loading historical data...
Loading historical data...
Loading historical data...
Loading historical data...
Loading historical data...
Loading historical data...

Documentation

Showing up to 5 results
|